Starlink 1167

operational
NORAD ID: 45071 Int'l Des: 2020-006 Owner: SPXS Country: US Constellation: starlink
LEOCIRCULARSTARLINK_TYPE

关于 Starlink 1167

正在加载描述...

实时位置

正在加载3D地球...

即将过境

高度历史

Altitude vs Time

uPlot chart will show altitude changes over time

两行轨道根数

1 45071U 20006AD 25350.98880253 .00003415 00000-0 24809-3 0 9992
2 45071 53.0550 277.8770 0001389 88.7405 271.3743 15.06396274324276
Epoch: Dec 16, 2025 • Age: 9 hours

当前状态

高度 547.1 km
速度 7.59 km/s
星下点 16.86°N, 128.98°W
发射日期 Jan 29, 2020
运行时间 5.8 years
类型 internet

技术详情

分类 Payload
质量 260.00 kg
干质量 248.00 kg
总质量 260.00 kg
长度 0.20 m
直径 2.80 m
跨度 9.00 m
形状 Box + pan
制造商 SPXS
平台类型 Starlink
阶段状态 In Orbit
所有者/国家 SPXS/US

大型星座

Loading constellations...